Location: Buisson
(44.2787°N, 4.9969°E)
Time: 08:01:08
(UTC+00:00)

Meteor 1-12 Rocket - Pass Details

Date: 18 April 2021
Orbit: 855 x 925 km, 81.2° (Epoch: 06 May)

Event Time Altitude Azimuth Distance (km) Brightness Sun altitude
Rises 02:33:18 0° 350° (N) 3,584 7.9 -22.2°
Reaches altitude 10° 02:35:48 10° 352° (N) 2,635 7.2 -21.9°
Maximum altitude 02:41:51 78° 79° (E) 944 4.5 -21.1°
Drops below altitude 10° 02:47:47 10° 166° (SSE) 2,591 6.5 -20.3°
Enters shadow 02:48:39 - 167° (SSE) 2,917 6.7 -20.2°
